Stündliche Wetter Cave Spring

Heute, 30 Oktober, Freitag

Zeit Temperatur Niederschläge Wind Luftdruck Luftfeuchtigkeit
00:00 +17°C° 0.2 mm 2 m/S 719 mmHg 91%
01:00 +16°C° 0.2 mm 3 m/S 719 mmHg 89%
02:00 +14°C° 0 mm 4 m/S 719 mmHg 87%
03:00 +13°C° 0 mm 5 m/S 720 mmHg 85%
04:00 +11°C° 0 mm 6 m/S 721 mmHg 84%
05:00 +11°C° 0 mm 6 m/S 722 mmHg 82%
06:00 +10°C° 0 mm 6 m/S 724 mmHg 79%
07:00 +10°C° 0 mm 6 m/S 725 mmHg 77%
08:00 +10°C° 0 mm 6 m/S 726 mmHg 73%
09:00 +10°C° 0 mm 6 m/S 727 mmHg 68%
10:00 +10°C° 0 mm 6 m/S 729 mmHg 64%
11:00 +10°C° 0 mm 6 m/S 729 mmHg 63%
12:00 +10°C° 0 mm 6 m/S 730 mmHg 63%
13:00 +10°C° 0 mm 5 m/S 730 mmHg 62%
14:00 +9°C° 0 mm 5 m/S 731 mmHg 62%
15:00 +9°C° 0 mm 5 m/S 731 mmHg 61%
16:00 +10°C° 0 mm 4 m/S 732 mmHg 60%
17:00 +8°C° 0 mm 4 m/S 732 mmHg 62%
18:00 +7°C° 0 mm 4 m/S 733 mmHg 65%
19:00 +7°C° 0 mm 3 m/S 734 mmHg 67%
20:00 +5°C° 0 mm 3 m/S 735 mmHg 70%
21:00 +6°C° 0 mm 2 m/S 735 mmHg 72%
22:00 +5°C° 0 mm 2 m/S 736 mmHg 75%
23:00 +5°C° 0 mm 1 m/S 736 mmHg 77%

Morgen, 31 Oktober, Samstag

Zeit Temperatur Niederschläge Wind Luftdruck Luftfeuchtigkeit
00:00 +5°C° 0 mm 1 m/S 736 mmHg 79%
01:00 +4°C° 0 mm 1 m/S 736 mmHg 82%
02:00 +4°C° 0 mm 1 m/S 737 mmHg 82%
03:00 +4°C° 0 mm 1 m/S 737 mmHg 83%
04:00 +4°C° 0 mm 1 m/S 737 mmHg 83%
05:00 +2°C° 0 mm 0 m/S 738 mmHg 83%
06:00 +2°C° 0 mm 0 m/S 738 mmHg 83%
07:00 +2°C° 0 mm 0 m/S 739 mmHg 83%
08:00 +5°C° 0 mm 1 m/S 739 mmHg 77%
09:00 +7°C° 0 mm 1 m/S 739 mmHg 72%
10:00 +8°C° 0 mm 2 m/S 739 mmHg 66%
11:00 +8°C° 0 mm 2 m/S 739 mmHg 65%
12:00 +9°C° 0 mm 2 m/S 739 mmHg 63%
13:00 +9°C° 0 mm 2 m/S 738 mmHg 62%
14:00 +9°C° 0 mm 2 m/S 738 mmHg 62%
15:00 +10°C° 0 mm 2 m/S 737 mmHg 62%
16:00 +10°C° 0 mm 2 m/S 737 mmHg 62%
17:00 +9°C° 0 mm 1 m/S 737 mmHg 70%
18:00 +8°C° 0 mm 1 m/S 737 mmHg 78%
19:00 +5°C° 0 mm 0 m/S 737 mmHg 85%
20:00 +5°C° 0 mm 0 m/S 737 mmHg 86%
21:00 +5°C° 0 mm 0 m/S 737 mmHg 87%
22:00 +5°C° 0 mm 0 m/S 737 mmHg 88%
23:00 +5°C° 0 mm 0 m/S 736 mmHg 89%

übermorgen, 1 November, Sonntag

Zeit Temperatur Niederschläge Wind Luftdruck Luftfeuchtigkeit
00:00 +4°C° 0 mm 0 m/S 736 mmHg 91%
01:00 +4°C° 0 mm 0 m/S 735 mmHg 93%
02:00 +5°C° 0 mm 1 m/S 735 mmHg 93%
03:00 +5°C° 0 mm 1 m/S 734 mmHg 94%
04:00 +5°C° 0 mm 1 m/S 734 mmHg 95%
05:00 +5°C° 0 mm 1 m/S 733 mmHg 95%
06:00 +6°C° 0 mm 1 m/S 733 mmHg 95%
07:00 +6°C° 0 mm 1 m/S 733 mmHg 95%
08:00 +7°C° 0 mm 2 m/S 732 mmHg 86%
09:00 +10°C° 0 mm 2 m/S 731 mmHg 77%
10:00 +13°C° 0 mm 3 m/S 731 mmHg 68%
11:00 +14°C° 0 mm 4 m/S 730 mmHg 65%
12:00 +15°C° 0 mm 5 m/S 728 mmHg 63%
13:00 +16°C° 0 mm 5 m/S 727 mmHg 61%
14:00 +15°C° 0.1 mm 6 m/S 727 mmHg 64%
15:00 +13°C° 0.1 mm 6 m/S 727 mmHg 67%
16:00 +11°C° 0.1 mm 7 m/S 727 mmHg 70%
17:00 +9°C° 0 mm 6 m/S 728 mmHg 65%
18:00 +7°C° 0 mm 6 m/S 728 mmHg 61%
19:00 +5°C° 0 mm 5 m/S 729 mmHg 57%
20:00 +3°C° 0 mm 6 m/S 729 mmHg 59%
21:00 +2°C° 0 mm 6 m/S 730 mmHg 62%
22:00 0°C° 0 mm 7 m/S 730 mmHg 65%
23:00 -1°C° 0 mm 7 m/S 730 mmHg 63%

2 November, Montag

Zeit Temperatur Niederschläge Wind Luftdruck Luftfeuchtigkeit
00:00 -2°C° 0 mm 7 m/S 731 mmHg 60%
01:00 -3°C° 0 mm 7 m/S 731 mmHg 58%
02:00 -3°C° 0 mm 7 m/S 731 mmHg 60%
03:00 -3°C° 0 mm 6 m/S 731 mmHg 62%
04:00 -3°C° 0 mm 6 m/S 732 mmHg 63%
05:00 -3°C° 0 mm 6 m/S 732 mmHg 64%
06:00 -3°C° 0 mm 6 m/S 732 mmHg 64%
07:00 -3°C° 0 mm 6 m/S 733 mmHg 64%
08:00 -2°C° 0 mm 6 m/S 733 mmHg 56%
09:00 0°C° 0 mm 7 m/S 734 mmHg 49%
10:00 +3°C° 0 mm 7 m/S 734 mmHg 41%
11:00 +4°C° 0 mm 7 m/S 734 mmHg 38%
12:00 +5°C° 0 mm 7 m/S 734 mmHg 34%
13:00 +7°C° 0 mm 6 m/S 734 mmHg 30%
14:00 +7°C° 0 mm 6 m/S 734 mmHg 32%
15:00 +7°C° 0 mm 5 m/S 733 mmHg 34%
16:00 +6°C° 0 mm 5 m/S 733 mmHg 36%
17:00 +5°C° 0 mm 4 m/S 734 mmHg 42%
18:00 +3°C° 0 mm 4 m/S 734 mmHg 48%
19:00 +2°C° 0 mm 3 m/S 735 mmHg 54%
20:00 +2°C° 0 mm 3 m/S 734 mmHg 56%
21:00 +2°C° 0 mm 3 m/S 734 mmHg 57%
22:00 +1°C° 0 mm 3 m/S 734 mmHg 59%
23:00 +1°C° 0 mm 3 m/S 734 mmHg 57%

3 November, Dienstag

Zeit Temperatur Niederschläge Wind Luftdruck Luftfeuchtigkeit
00:00 +2°C° 0 mm 3 m/S 734 mmHg 55%
01:00 +2°C° 0 mm 3 m/S 734 mmHg 53%
02:00 +2°C° 0 mm 3 m/S 734 mmHg 52%
03:00 +2°C° 0 mm 3 m/S 734 mmHg 51%
04:00 +2°C° 0 mm 3 m/S 734 mmHg 50%
05:00 +2°C° 0 mm 3 m/S 734 mmHg 50%
06:00 +2°C° 0 mm 2 m/S 734 mmHg 50%
07:00 +2°C° 0 mm 2 m/S 735 mmHg 50%
08:00 +4°C° 0 mm 3 m/S 735 mmHg 45%
09:00 +7°C° 0 mm 3 m/S 735 mmHg 40%
10:00 +10°C° 0 mm 4 m/S 735 mmHg 36%
11:00 +11°C° 0 mm 4 m/S 735 mmHg 36%
12:00 +13°C° 0 mm 4 m/S 735 mmHg 37%
13:00 +14°C° 0 mm 4 m/S 734 mmHg 38%
14:00 +14°C° 0 mm 3 m/S 734 mmHg 42%
15:00 +13°C° 0 mm 3 m/S 734 mmHg 46%
16:00 +14°C° 0 mm 2 m/S 734 mmHg 50%
17:00 +12°C° 0 mm 2 m/S 735 mmHg 56%
18:00 +9°C° 0 mm 1 m/S 736 mmHg 62%
19:00 +7°C° 0 mm 1 m/S 736 mmHg 69%
20:00 +7°C° 0 mm 1 m/S 737 mmHg 71%
21:00 +6°C° 0 mm 1 m/S 737 mmHg 72%
22:00 +6°C° 0 mm 1 m/S 738 mmHg 74%
23:00 +6°C° 0 mm 1 m/S 738 mmHg 75%

4 November, Mittwoch

Zeit Temperatur Niederschläge Wind Luftdruck Luftfeuchtigkeit
00:00 +5°C° 0 mm 1 m/S 738 mmHg 77%
01:00 +5°C° 0 mm 1 m/S 739 mmHg 78%
02:00 +5°C° 0 mm 1 m/S 739 mmHg 80%
03:00 +3°C° 0 mm 0 m/S 739 mmHg 81%
04:00 +3°C° 0 mm 0 m/S 739 mmHg 82%
05:00 +3°C° 0 mm 0 m/S 740 mmHg 83%
06:00 +3°C° 0 mm 0 m/S 740 mmHg 84%
07:00 +3°C° 0 mm 0 m/S 740 mmHg 84%
08:00 +5°C° 0 mm 0 m/S 741 mmHg 75%
09:00 +9°C° 0 mm 1 m/S 741 mmHg 66%
10:00 +11°C° 0 mm 1 m/S 741 mmHg 57%
11:00 +13°C° 0 mm 1 m/S 741 mmHg 55%
12:00 +14°C° 0 mm 1 m/S 741 mmHg 52%
13:00 +15°C° 0 mm 2 m/S 740 mmHg 50%
14:00 +14°C° 0 mm 2 m/S 740 mmHg 52%
15:00 +14°C° 0 mm 2 m/S 740 mmHg 55%
16:00 +14°C° 0 mm 2 m/S 740 mmHg 58%
17:00 +12°C° 0 mm 1 m/S 740 mmHg 65%
18:00 +10°C° 0 mm 1 m/S 740 mmHg 73%
19:00 +7°C° 0 mm 0 m/S 741 mmHg 81%
20:00 +7°C° 0 mm 0 m/S 741 mmHg 81%
21:00 +6°C° 0 mm 0 m/S 741 mmHg 82%
22:00 +7°C° 0 mm 1 m/S 740 mmHg 83%
23:00 +7°C° 0 mm 1 m/S 740 mmHg 84%
Mehr zeigen